Notices

What's New in latest Release from April 7th, 2021:

- Updated Glossary, including Speed of Maximum Gust, and Total Hourly Precipitation

- Updated national and regional climate services offices contacts and prices information

- Addition of station inventory lists for 1981-2010, 1971-2000, and 1961-1990 Normals.

If you haven't already, please take our survey and provide feedback about our website: https://eccc.sondage-survey.ca/f/LanguageSelection.aspx?s=442ca660-fcf1-47c0-95a9-59707d6fd709

Hourly Data Report for January 07, 2006

TORONTO CITY
ONTARIO

43°40'00.000" N
79°24'00.000" W
112.50 m
6158355
71508
XTO

Download Data

Hourly Data (January 2006)
Hourly Data Report for January 7, 2006
TIME
LST
Temp Definition
°C
Dew Point Definition
°C
Rel Hum Definition
%
Precip. Amount Definition
mm

Wind Dir Definition
10's deg

Wind Spd Definition
km/h
Visibility Definition
km
Stn Press Definition
kPa
Hmdx Definition


Wind Chill Definition


Weather Definition


00:00 -5.5 -10.6 67   LegendMM LegendMM   99.74     LegendNANA
01:00 -4.7 -9.4 70   LegendMM LegendMM   99.67     LegendNANA
02:00 -4.4 -8.8 71   LegendMM LegendMM   99.68     LegendNANA
03:00 -4.7 -8.9 72   LegendMM LegendMM   99.67     LegendNANA
04:00 -4.0 -8.3 72   LegendMM LegendMM   99.59     LegendNANA
05:00 -3.3 -8.1 69   LegendMM LegendMM   99.49     LegendNANA
06:00 -2.8 -5.9 79   LegendMM LegendMM   99.50     LegendNANA
07:00 -3.2 -4.6 90   LegendMM LegendMM   99.51     LegendNANA
08:00 -2.9 -3.7 94   LegendMM LegendMM   99.50     LegendNANA
09:00 -1.9 -2.5 96   LegendMM LegendMM   99.48     LegendNANA
10:00 -1.2 -2.4 92   LegendMM LegendMM   99.44     LegendNANA
11:00 -0.5 -2.1 89   LegendMM LegendMM   99.39     LegendNANA
12:00 -0.5 -1.6 92   LegendMM LegendMM   99.26     LegendNANA
13:00 -0.4 -1.8 90   LegendMM LegendMM   99.19     LegendNANA
14:00 -0.5 -1.4 94   LegendMM LegendMM   99.16     LegendNANA
15:00 -0.2 -0.9 95   LegendMM LegendMM   99.17     LegendNANA
16:00 0.2 -0.6 94   LegendMM LegendMM   99.18     LegendNANA
17:00 0.4 -0.5 94   LegendMM LegendMM   99.19     LegendNANA
18:00 0.5 -0.4 94   LegendMM LegendMM   99.23     LegendNANA
19:00 0.6 -0.3 94   LegendMM LegendMM   99.27     LegendNANA
20:00 0.7 -0.5 92   LegendMM LegendMM   99.28     LegendNANA
21:00 1.0 -0.2 92   LegendMM LegendMM   99.28     LegendNANA
22:00 0.7 -0.4 92   LegendMM LegendMM   99.28     LegendNANA
23:00 0.5 -1.0 90   LegendMM LegendMM   99.30     LegendNANA

Notes on Data Quality.

Legend

  • E = Estimated
  • M = Missing
  • NA = Not Available*
  • [empty] = Indicates an unobserved value
Date modified: